Race Results for
Fontana National Presented by MAXXIS NMBS#1
Fontana, CA
(Event Information)
Cross Country on 03/30/2008

Note: Ranking points are NOT upgrade points. An explanation of ranking points can be found here.


Men - SP - Junior - 1-14

 Place Points NameCity, StateTime USAC #BibTeam
1386.35Ryan Geiger   Flagstaff, AZ0:39:59.90 258285  679 BIONICON
2424.89Nicholas Tarrant   La Verne, CA0:40:02.35 271064  464 SC VELO
3463.43Casey Williams   Big Bear City, CA0:43:22.14 227522  593 BEAR VALLE
4501.96Tyler Coplea   Chandler0:44:30.05 196300  939 LANDIS/TRE
5540.50Quint Berkemeier   Lake Arrowhead, CA0:47:18.21 240136  1113 

Men - SP - Senior - 1-34

 Place Points NameCity, StateTime USAC #BibTeam
1Luke Werkhoven   Santa Barbara, CA1:27:38.73 199565  650 PLATINUM P
DNFKeith Fernandez   Santee, CADNF 276319  683 

Men - SP - Senior

 Place Points NameCity, StateTime USAC #BibTeam
1JOEY DOLOWY   1:23:20.23  988 OUTER CIRC
2546.25Jeff Johnson   Santa Maria, CA1:30:36.87 243727  673 PEDAL POWE
3552.50Michael Johnston   Riverside, CA1:32:27.63 127260  889 PROMOTION
4CALVIN LEFEBVRE   1:37:40.72  797 
5565.00John Schmidt   Huntington Beach, CA1:41:44.11 222526  1120 
6SEAN SNOREK   1:42:19.88  401 BEAR VALLE
7STEPHEN WAYDO   1:45:13.98  461 
8EDWARD EWERT   1:46:42.05  684 COATES CYC
9SCOTT MONROE   1:49:41.95  947 

Men - SP - Junior - 15-16

 Place Points NameCity, StateTime USAC #BibTeam
1400.00Nicholas Caldera   Clovis, CA1:27:36.26 248167  767 TRI SPORT
2447.50Jacob Johnson   Carlsbad, CA1:33:12.71 260944  749 SHO-AIR/SO
3495.00Gene Capinas   North Las Vegas, NV1:37:10.24 197498  802 NU VISION
4542.50Matthew Thome   Costa Mesa Ca1:38:39.28 250200  462 BACKBONE/P
5590.00Ryan Blanchette   Long Beach, CA1:51:01.09 185784  772 BAKCBONE R

Men - SP - Junior - 17-18

 Place Points NameCity, StateTime USAC #BibTeam
1540.00Michael Suggs   Irvine, CA1:31:46.01 263280  524 
2EMANUEL HERNANDEZ   1:50:11.52  356 BEAR VALLE
3590.00samuel hirschmann   Irvine, CA1:50:38.66 273472  368 SHO-AIR SO

Men - SP - Senior - 19-24

 Place Points NameCity, StateTime USAC #BibTeam
1308.40Chris Thibodeau   Grass Valley, CA1:17:00.85 241949  439 SIERRA EXP
2341.27zachary keller   Mesa, AZ1:21:34.23 257387  416 
3BRANDON KOWALSKI   1:21:36.08  998 
4STEPHANE VALLEE   1:22:58.21  255 
5439.87Adrian Gutierrez   Santa Clara, CA1:27:59.48 247722  477 PACIFIC ST
6472.73Vu Le   Temple City, CA1:37:03.41 234645  669 TEMPLE CIT
7505.60Adam Torpey   San Diego, CA1:40:40.53 277031  279 SAN DIEGO

Men - SP - Senior - 25-29

 Place Points NameCity, StateTime USAC #BibTeam
1RYA HERNANDEZ   1:20:42.45  364 SCVELO
2546.25Douglas Herington   Farmington, NM1:23:36.51 260817  432 
3552.50Adam Poytress   Goleta, CA1:24:24.71 260239  663 PLATINUM P
4558.75Van Geslani   Loma Linda, CA1:24:36.67 232565  978 TEAM POSSA
5BRETT BUTLER   1:29:09.32  491 
6RYAN MEYER   1:29:50.38  577 
7RORY ARP   1:32:44.06  257 
8JASON CHIODO   1:39:31.30  764 PASADENA C
9590.00Roel Perez   Fullerton1:44:36.73 245657  786 SC VELO
DNFAndrew Choi   Upland, CADNF 274348  763 

Men - SP - Master - 30-34

 Place Points NameCity, StateTime USAC #BibTeam
1540.00Chase Schoen   Thousand Oaks, CA1:16:35.19 250408  582 PLATINUM P
2BRIAN BUTLER   1:17:01.19  546 HAMMER
3556.67Chris Messina   Rancho Santa Margarita, CA1:22:01.48 239423  357 FLOW MG
4565.00Kevin Adair   Larchmont, NY1:24:14.89 275428  1147 PERFORMANC
5573.33Jason Rusnak   Lake Forest, CA1:26:52.18 277468  657 
6581.67Julian Villa   Moorpark, CA1:28:26.81 234378  721 SC VELO
7590.00jason broussard   Thousand Oaks, CA1:33:02.03 263609  688 
DNFGary Locken   Fresno, CADNF 227472  500 SPATDOG.CO

Men - SP - Master - 35-39

 Place Points NameCity, StateTime USAC #BibTeam
1387.30Matthew Ford   Rancho Santa, CA1:14:50.87 191422  703 SHO-AIR
2395.75Trevor Dunn   Ventura, CA1:20:04.73 272790  372 METALMTN
3CYRUS OSTER   1:21:12.82  359 DONS BIKES
4TODD DOWNING   1:21:36.46  387 
5DEAN LONG   1:22:29.56  274 JENSON USA
6429.53Curtis Cramblett   San Jose, CA1:22:52.76 183932  409 
7437.98Eric Woods   Centennial, CO1:22:53.24 152275  596 SHO-AIR
8CHRIS KASEY   1:24:22.45  276 
9454.87Geoff Eyer   La Quinta, CA1:25:51.23 250409  295 PALM SPRIN
10463.31Christopher Bautista   Glendora, CA1:26:00.93 92585  457 SC VELO
11JOHN UMALE   1:26:34.13  651 SABAK/PHIL
12480.20Dean Bricker   Palm Desert, CA1:27:06.31 112021  769 
13TRAVIS SLUDER   1:28:06.60  527 
14497.10Jason Butler   San Diego, CA1:28:15.81 240062  278 SDBC
15ROBERT ATKINS   1:28:36.29  369 SMITHS CYC
16BEN BLANK   1:29:45.04  360 
17522.43Lane Miller   San Francisco, CA1:31:18.70 159049  289 SDBC MTB
18GEORGE UMALE   1:31:36.61  652 SABAK/PHIL
19539.33Tim VanGilder   Mission Viejo, CA1:33:00.88 138867  618 
20547.77Chad Rivetti   Westlake Village, CA1:33:27.57 212335  291 TEAM BEARC
21556.22Chris DuBurg   Los Gatos, CA1:36:00.16 232893  605 SPATDOG.CO
22CHRISTOPHER BOONE   1:37:16.65  555 TROUPE RAC
23ANDREW ULMEN   1:45:22.46  653 
24581.55rod christiansen   Santa Ana, CA2:09:06.79 271229  396 SURF CITY
25590.00Patrick Toole   Tujunga, CA2:23:58.37 35749  529 
DNFRICK VANGRIN   DNF  779 SHO-AIR/SO
DNFMARK WOODWARD   DNF  777 VELOSPORT/
DNFOmar Estrada   Buena Park, CADNF 199503  55 ENCORE CYC

Men - SP - Master - 35-99

 Place Points NameCity, StateTime USAC #BibTeam
1SCOTT HARPER   1:25:10.55  374 
2548.33Andrew Hart   Riverside, CA1:29:10.92 191056  297 JENSON
3556.67Mark Mann   Rancho Santa Margarita, CA1:30:32.10 75473  973 COATES/FRE
4JACK KAVANAGH   1:32:00.08  270 DON'S BIKE
5MARK SALMON   1:39:14.43  656 
6STEVE BATES   1:41:54.65  259 VELO PRO
7590.00Ben Mesa   Redlands, CA2:07:56.69 218360  300 TM JOSE OL

Men - SP - Master - 40-44

 Place Points NameCity, StateTime USAC #BibTeam
1540.00Brian Dickey   Simi Valley, CA1:16:35.33 275961  685 COLAVITA S
2SEAN MCCOY   1:17:15.21  744 
3544.35Craig Donkin   Tarzana, CA1:17:17.76 270308  543 
4JON FLAGG   1:17:19.60  370 SIMPLE GRE
5548.70Stephen Smith   Montrose , CA1:18:01.21 33294  441 TEAM SMITH
6MICHAEL RASCHKE   1:18:39.50  262 METAL MTN
7MARK MILAM   1:21:29.19  742 
8555.22Tom Andrews   Monrovia, CA1:22:00.50 1757  549 
9557.39Terry Bassett   Orange, CA1:23:08.24 264789  268 FLOW RACIN
10559.57Adam Austin   Los Angeles, CA1:23:46.28 251417  353 TEAM BEARC
11CHAZ MCLAUGHLIN   1:23:56.97  263 
12563.91Randy Rush   Ramona, CA1:24:53.20 205171  728 BACKBONE
13566.09mike hinze   Whittier, CA1:25:17.86 260929  453 LA HABRA C
14ALEJANDRO MEDINA   1:26:18.87  365 
15570.43Steve Kelley   Salinas, CA1:26:31.43 204376  1123 JOSELYNS
16ERIK ROHLEEN   1:27:34.77  784 
17574.78Jonathan Luckett   Carpinteria, CA1:28:22.45 193820  668 PLATINUM P
18576.96Kevin Bailey   Pinon Hills, CA1:29:11.54 144294  559 
19579.13Paul Hauck   Canyon Country, CA1:29:40.20 53255  504 SANTA CLAR
20581.30Tim Bess   Rancho Cucamonga, CA1:35:19.63 170882  290 COLAVITA
21583.48Philip Friden   Santa Barbara, CA1:38:27.83 239238  702 CHICKEN RA
22585.65John Robinson   Pasadena, CA1:48:32.97 124230  1110 SOLIDSKATE
23SOSTENES MELGAREJO   1:58:05.26  611 AVEMEX
24590.00Thomas O'Meara   Lancaster, CA2:04:25.46 216012  661 
DNFFrank Pinto   Monterey, CADNF 227583  660 JOSELYNS
DNFRaul Tarango   Fawnskin, CADNF 192663  355 BEAR VALLE

Men - SP - Master - 45-49

 Place Points NameCity, StateTime USAC #BibTeam
1540.00Randall Martin   Laguna Niguel, CA1:18:20.04 156988  666 SIMPLE GRE
2542.13R. Scott Tedro   Santa Ana, CA1:21:15.47 263040  591 SHO-AIR/RO
3RONNIE GALLEGO   1:21:39.07  275 WHEELBUILD
4ROBERT RODGERS   1:21:55.78  392 SHO-AIR/SO
5548.51John Furlong   San Clemente, CA1:23:05.07 226262  266 SHO-AIR/SO
6PAUL VUJOVICH   1:24:22.18  1155 TEAM PURLE
7VINCENT SABOTIN   1:25:07.38  253 IDYLLWILD
8554.89Robert Martinez   Lodi, CA1:25:57.12 22761  793 ROCKET SPO
9557.01Thomas Gabehart   Poway, CA1:26:15.50 40110  800 CAL COAST
10559.14Brian Bennett   Thousand Oaks, CA1:26:20.52 262323  774 
11BRAD SNEED   1:26:36.62  533 UTAHMOUNTA
12563.39Daniel Pino   Lawndale, CA1:28:30.89 184841  975 SMIITH'S C
13DAVID CULBERTSON   1:29:39.80  373 
14567.65Hugo Martin   Santa Clarita, CA1:30:06.69 258127  446 SANTA CLAR
15569.77Dean Spahr   Edwards, CA1:34:00.45 206059  780 USAFR
16571.90Rick Lane   Fullerton, CA1:34:00.83 199508  399 TEAM U.P
17574.03Roland Dechaine   San Diego, CA1:34:50.17 170667  480 
18576.15Dean Henthorn   Scottsdale, AZ1:38:06.15 234438  395 BICYCLE WO
19FRED SHIGA   1:39:03.44  296 
20580.41Marshall Brown   Tehachapi, CA1:44:00.77 181622  768 SIMPLY FIT
21PAUL TABEEK   1:46:29.58  616 SCHREIBER/
22TOM BLAINE   1:54:19.22  986 JOSE OLE
DNFThomas Blaine   Highland, CADNF 40752  286 JOSE OLE
DNFRichard Kim   Anaheim Hills, CADNF 246854  502 SHO-AIR/SO

Men - SP - Master - 50-54

 Place Points NameCity, StateTime USAC #BibTeam
1540.00Joe Fabris   Los Gatos, CA1:21:05.05 189959  420 FIGHTIN BO
2STEVE WRIGHT   1:24:30.35  267 
3545.00John Holthaus   Coto De Caza, CA1:25:25.74 273563  879 SHO-AIR
4547.50Donald Jackson   Mission Viejo, CA1:27:16.91 216645  909 SHO-AIR
5550.00Lee McEachern   San Diego, CA1:27:42.75 256393  579 CAL COAST
6552.50Phil Beckman   Lake Arrowhead, CA1:27:52.74 3125  558 DONS BIKES
7555.00Gary Stewart   Oak Hills, CA1:29:40.83 133607  953 ESI GRIPS
8KEVIN WOLFE   1:30:59.70  361 OUTERCIRCL
9560.00Douglas House   Dove Canyon, CA1:31:20.76 224106  475 SHO-AIR/SO
10562.50Steve Bertrand   Carpinteria, CA1:32:31.44 196819  598 PLATINUM P
11565.00Steven Miller   Lake Stevens, WA1:33:27.96 203491  911 BICYCLE CE
12567.50John Goodman   Santa Barbara, CA1:39:11.09 203221  677 PLATINUM P
13TIM ZONGKER   1:39:59.89  648 SHO-AIR/SO
14572.50Chuck Filkins   Simi Valley, CA1:41:24.75 214209  682 TEAM APE
15575.00Gary Bojorquez   Saugus, CA1:41:26.01 144193  299 SANTA CLAR
16577.50Shigy Suzuki   Carpinteria, CA1:42:09.89 254512  269 PLATINUM
17580.00Gary Scheidler   W Covina, CA1:48:50.11 159348  522 SHO-AIR/SO
18582.50Roger Lopez   1:50:17.58 275979  448 VICTORY VE
19JOHN WASON   2:03:33.56  389 COATES CYC

Men - SP - Master - 55-59

 Place Points NameCity, StateTime USAC #BibTeam
1GREGORY ROSDAHL   1:27:24.26  783 
2547.14Tod Hostetler   North Hills, CA1:28:53.78 221581  254 TEAM APE
3554.29Chris Stapleton   Saugus, CA1:29:05.67 129752  640 SC VELO
4561.43Mike Roberts   Ojai, CA1:34:47.43 229940  587 PLATINUM
5JOHN BAMFORD   1:36:39.61  775 TEAM APE
6575.71Philippe Minniti   Canyon Country, CA1:37:59.54 183822  354 TEAM APE
7DAN MUNZ   1:50:32.06  574 SHO-AIR/SO
8STEVE ENGELGAU   1:54:50.95  757 BEAR VALLE

Men - SP - Master - 60-64

 Place Points NameCity, StateTime USAC #BibTeam
1540.00Roger Sexton   Valencia, CA1:47:30.52 142061  613 TEAM APE
2556.67Bruce Ramsey   Valencia, CA1:54:42.06 29106  264 SANTA CLAR
3JOHN CLEMMITT   2:21:31.87  271 CLUB ENDUR
4590.00R Russ   Chatsworth, CA2:47:55.44 126301  1179 BIKEMAN.CO

Men - SP - Master - 65-99

 Place Points NameCity, StateTime USAC #BibTeam
1GARY FOSTER   1:51:14.44  510 CYCOPATH

Men - Cat 1/2/3 - Senior

 Place Points NameCity, StateTime USAC #BibTeam
1Edward Sibby   Temecula, CA0:53:47.29 181614  807 CYCOPATH

Men - BG - Senior - 19-24

 Place Points NameCity, StateTime USAC #BibTeam
1JUSTIN BERGMAN   0:46:01.38  362 SMITH/TLD/
2JEREMY MALDONADO   0:48:27.09  397 SHO-AIR/VE
3JOSE GONZALEZ   0:53:11.41  366 

Men - BG - Senior - 25-29

 Place Points NameCity, StateTime USAC #BibTeam
1JOHN GILLEN   0:46:08.08  1152 
2ISRAEL BOCANEGRA   0:49:35.82  367 
3560.00Cheyne McKeever   Huntington Beach , CA0:51:49.79 262304  578 
4570.00Goro Kataoka   Irvine, CA0:53:09.40 271880  671 
5DAVID BANKS   0:53:49.17  398 
6FERDINAND PASTOR   1:21:37.12  261 

Men - BG - Master - 30-34

 Place Points NameCity, StateTime USAC #BibTeam
1MATT SMITH   0:43:06.41  581 
2JASON MARTEL   0:45:30.33  471 SMALL AXE
3SCOTT HARVEY   0:48:13.44  419 
4ROBERT MORALES   0:49:11.82  790 
5MARCUS AUSTIN   1:01:19.19  371 
DNFKENNY MAZZARESE   DNF  537 

Men - BG - Master - 35-39

 Place Points NameCity, StateTime USAC #BibTeam
1540.00Alexei Desatoff   Sitka, AK0:39:49.43 277275  1100 
2545.56Justin Rosen   Santa Ana, CA0:43:16.36 260915  586 SHO-AIR/RO
3RUSS NIEDWICK   0:46:46.48  740 
4BRANDON GROVE   0:51:56.69  678 
5MARK NAYLOR   0:56:18.97  525 BEAR VALLE
6SONNY YALUNG   0:57:01.26  260 
7JOEL LONDAU   0:58:34.17  890 
8MIKE MILLER   0:59:27.05  1157 
9ROBERT KERSLEY   1:05:15.46  294 
10ERIC ABRANS   1:44:29.46  345 MONAVIE

Men - BG - Master - 35-99

 Place Points NameCity, StateTime USAC #BibTeam
1HARRY BURR   0:44:55.74  687 
2BILL LASCURAIN   0:51:41.69  567 
3SCOTT VLAHOS   1:03:11.00  866 
4JEFF STRAIT   1:12:51.80  277 KYLE STRAI
DNFJOE SOLANCHO   DNF  394 
DNFJIM PALMER   DNF  808 VELO MBUM

Men - BG - Master - 40-44

 Place Points NameCity, StateTime USAC #BibTeam
1540.00Clinton Campbell   Yucaipa, CA0:41:41.17 271865  597 SHO-AIR/SO
2DENNIS SAVARD   0:50:38.45  727 SHO-AIR
3573.33Vladimir Popovic   La Crescenta, CA0:54:29.29 258143  443 SHO-AIR/SO
4KEVIN OLSEN   1:19:46.74  739 SHO-AIR

Men - BG - Master - 45-49

 Place Points NameCity, StateTime USAC #BibTeam
1MIKE RAULS   0:44:29.49  659 SHO-AIR/SO
2DAVID JURIST   0:44:30.73  672 
3554.29kurt kovacks   Menifee, CA0:44:58.04 263117  450 
4SCOTT LUNDGREN   0:45:47.71  796 
5PATRICK MAGNARELLA   0:47:15.16  667 TEAM PMC
6575.71Timothy Carpenter   Anaheim, CA0:50:36.76 267661  456 SHO-AIR/SO
7582.86Greg Knowles   Santa Barbara, CA0:51:07.91 75518  670 CHICKEN RA
8590.00Mark Thome   Missoula, MT0:56:54.45 173433  463 BACKBONE/P

Men - BG - Master - 50-99

 Place Points NameCity, StateTime USAC #BibTeam
1DALE CARTER   0:46:43.97  765 SHO-AIR/SO
2565.00Keith Honda   Salinas, CA0:52:41.30 187073  600 
3590.00Michael McCue   La Jolla, CA1:04:20.47 243297  792 SDBC
DNFKURT WIESE   DNF  343 

Men - Junior - JR - 1-10

 Place Points NameCity, StateTime USAC #BibTeam
1DAVID POLLEY   0:39:45.99  680 UNATTACHED
2JAG BARTON   0:49:58.63  976 

Men - Junior - JR - 11-12

 Place Points NameCity, StateTime USAC #BibTeam
1437.52Kenny Polley   Peoria, AZ0:27:09.63 255203  681 UNATTACHED
2453.73Cameron Williams   Big Bear City, CA0:27:45.25 245456  594 BEAR VALLE
3469.93Troy Sladeck   Foothill Ranch0:27:56.15 225356  1136 SANTA CRUZ
4486.14Zachary Edwards   Flagstaff, AZ0:29:22.20 219148  542 DESERT DOG
5502.34Evan Williams   Big Bear City, CA0:33:59.90 255194  592 BV BIKES
6QUINTEN KIRBY   0:37:39.88  352 IC3
7534.75Ethan Shuler   Corona, CA0:48:57.17 268148  344 VELO

Men - Junior - JR - 13-14

 Place Points NameCity, StateTime USAC #BibTeam
1KOLLIN KING   0:31:49.78  363 THE HAMM T
2556.67Nathan Pherigo   Rancho Cucamonga, CA0:36:15.82 274012  381 SHO AIR
3ANISH NAG   0:42:15.04  789 NRL RACING
4590.00John Corl   Colorado Springs, CO0:51:43.83 272295  421 

Men - Junior - JR - 15-18

 Place Points NameCity, StateTime USAC #BibTeam
1540.00Brett Stevens   Palm Springs, CA0:46:04.49 275676  724 
2556.67Eduardo Morillas   Agoura Hills, CA0:49:43.92 259372  469 
3BRYCE SEMONIAN   0:55:25.83  655 
4TRISTAN RAMBERG   1:04:53.46  734 

Women - SP - Junior - 15-18

 Place Points NameCity, StateTime USAC #BibTeam
1TIANA ROW   2:08:03.63  358 

Women - SP - Senior - 19-29

 Place Points NameCity, StateTime USAC #BibTeam
1JASMINE SCOTT   1:37:37.02  252 COATES CYC
1550.00Allison Mann   Lake Elsinore, CA1:29:29.06 268587  795 
2560.00Whitney Jean Marx   San Francisco, CA2:01:24.06 257668  288 SDBC
2570.00Stephanie Gaudreau   Chula Vista, CA1:34:17.73 210919  400 THE PATH
3580.00chelsea west   Williamsburg, VA1:47:35.44 263223  841 BIKES UNLI
4JENNIFER STOTNERS   1:50:20.64  258 

Women - SP - Master - 30-39

 Place Points NameCity, StateTime USAC #BibTeam
1216.00Michelle Monroe   Salinas, CA1:28:39.97 203968  741 JOSELYNS/B
2MEREDITH FORD   1:37:19.18  560 SHO-AIR/SO
3465.33Rachel Park   Huntington Beach, CA1:43:52.18 239014  1121 
4590.00Allison Klenske   Thousand Oaks, CA1:44:07.32 274067  568 

Women - SP - Master - 40-49

 Place Points NameCity, StateTime USAC #BibTeam
1540.00Annabelle Nenninger   Lake Forest, CA1:35:09.42 276944  539 SHO-AIR
1AMY HUNTER   1:59:22.96  256 KAHALA LA
2573.33Jodi Martin   Claremont, CA2:05:52.97 170482  388 
3JEANNE SCHEETZ   2:09:25.89  782 COATES CYC

Women - BG - Senior - 19-29

 Place Points NameCity, StateTime USAC #BibTeam
1AMANDA SCHAPER   0:55:42.29  583 PLATINUM P
2KENDALL LOPEZ   1:07:47.62  449 VICTORY VE
3VIRGINIA CABRERA   1:12:51.52  545 SPATDOG.CO
DNFBRIANNE SPIERSCH   DNF  531 HAMMER

Women - BG - Master - 30-39

 Place Points NameCity, StateTime USAC #BibTeam
1KIM OLSEN   1:44:05.30  738 SHO-AIR
DNFSINA WALLACE   DNF  968 PLATINUM

Women - BG - Master - 40-49

 Place Points NameCity, StateTime USAC #BibTeam
1350.00Ronda Warden   Big Bear City, CA0:53:36.45 263279  293 BEAR VALLE
2TAMMY TERRY   0:53:40.04  298 COLE MARTE
3KAREN REYNOSO   0:54:00.74  287 
4TRACIE STEPHENSON   1:00:07.26  715 SHO-AIR
5510.00Kim Finch   Whittier, CA1:02:38.75 243696  1140 
6STEPHANIE RIVERA   1:07:43.69  731 PLATINUM
7JORDANA JONES   1:17:47.83  747 

Women - Junior - JR - 1-14

 Place Points NameCity, StateTime USAC #BibTeam
1MYIA WOOD   0:32:31.47  942 
DNFCLARISSA RODRIGUEZ   DNF  265 FELAS

Report missing or incorrect license numbers

Volkswagen
USACDFBonk BreakerSierra NevadaSpyShimano
UCI USA Cycling is the official governing body for all disciplines of competitive cycling in the United States. The 501c3, membership-based organization aims both to achieve sustained success in international cycling competition and to grow competitive cycling in America while delivering an exceptional customer experience.
View Children's Online Privacy Protection Policy
US Olympic Committee